Meteo Giornale » Osservazioni meteo Cina » Taiyuan
ore: 07:00 - Osservazioni Meteo Taiyuan
Lat. 37° 47' N Lon. 112° 33' E Alt. 779 metri s.l.m.
19 °C
Sereno
Temp. 24 Ore
16 °C
30 °C
Nord
7.2 Km/h
Dew point 14 °C
Umidità 72 %
Visibilità 10 Km
Il sole sorge alle ore 05:59
Il sole tramonta alle ore 19:00
| Data e Ora | Cielo e Fenomeni | T °C | DP °C | Um. % | Pres. hPa | Vis. km | Vento km/h | |
|---|---|---|---|---|---|---|---|---|
| Oggi h: 07:00 | Sereno | 19 | 14 | 72 | 1020 | 10 | N 7.2 | |
| Oggi h: 06:30 | Sereno | 18 | 14 | 77 | 1020 | 10 | N 3.6 | |
| Oggi h: 06:00 | Sereno | 17 | 13 | 77 | 1019 | 10 | N 3.6 | |
| Oggi h: 05:30 | Sereno | 16 | 13 | 82 | 1019 | 10 | N 3.6 | |
| Oggi h: 05:00 | Sereno | 17 | 13 | 77 | 1019 | 10 | N 3.6 | |
| Oggi h: 04:30 | Sereno | 17 | 13 | 77 | 1019 | 10 | N 3.6 | |
| Oggi h: 04:00 | Sereno | 18 | 13 | 72 | 1019 | 10 | N 7.2 | |
| Oggi h: 03:30 | Sereno | 19 | 13 | 68 | 1019 | 10 | N 7.2 | |
| Oggi h: 03:00 | Sereno | 20 | 13 | 64 | 1019 | 10 | NE 10.8 | |
| Oggi h: 02:30 | Sereno | 20 | 13 | 64 | 1019 | 10 | NE 14.4 | |
| Oggi h: 02:00 | Sereno | 20 | 13 | 64 | 1019 | 10 | NE 18 | |
| Oggi h: 01:30 | Sereno | 20 | 13 | 64 | 1018 | 10 | NE 21.6 | |
| Oggi h: 01:00 | Sereno | 21 | 13 | 60 | 1019 | 10 | NE 21.6 | |
| Oggi h: 00:30 | Sereno | 21 | 13 | 60 | 1019 | 10 | E/NE 18 | |
| Oggi h: 00:00 | Sereno | 21 | 12 | 56 | 1018 | 10 | NE 18 | |
| Ieri h: 23:30 | Sereno | 21 | 13 | 60 | 1018 | 10 | E/NE 18 | |
| Ieri h: 23:00 | Sereno | 21 | 13 | 60 | 1018 | 10 | E/NE 21.6 | |
| Ieri h: 22:30 | Sereno | 22 | 13 | 56 | 1017 | 10 | E/NE 25.2 | |
| Ieri h: 22:00 | Sereno | 22 | 13 | 56 | 1017 | 10 | E 25.2 | |
| Ieri h: 21:30 | Sereno | 22 | 13 | 56 | 1017 | 10 | E 21.6 | |
| Ieri h: 21:00 | Sereno | 22 | 14 | 60 | 1017 | 10 | E 18 | |
| Ieri h: 20:30 | Sereno | 23 | 16 | 64 | 1016 | 10 | N 7.2 | |
| Ieri h: 20:00 | Sereno | 25 | 14 | 50 | 1016 | 10 | N 3.6 | |
| Ieri h: 19:30 | Sereno | 26 | 15 | 50 | 1015 | 10 | N 3.6 | |
| Ieri h: 19:00 | Sereno | 26 | 15 | 50 | 1015 | 10 | N 3.6 | |
| Ieri h: 18:30 | Sereno | 27 | 15 | 47 | 1015 | 10 | N 7.2 | |
| Ieri h: 18:00 | Sereno | 28 | 14 | 42 | 1015 | 10 | O 10.8 | |
| Ieri h: 17:30 | Sereno | 29 | 13 | 37 | 1015 | 10 | O 14.4 | |
| Ieri h: 17:00 | Poco Nuvoloso | 29 | 14 | 39 | 1014 | 10 | O 10.8 | |
| Ieri h: 16:30 | Poco Nuvoloso | 30 | 14 | 37 | 1014 | 10 | O/SO 10.8 | |
| Ieri h: 16:00 | Poco Nuvoloso | 30 | 14 | 37 | 1014 | 10 | O 10.8 | |
| Ieri h: 15:30 | Poco Nuvoloso | 30 | 12 | 33 | 1014 | 10 | O/SO 10.8 | |
| Ieri h: 15:00 | Poco Nuvoloso | 30 | 13 | 35 | 1014 | 10 | O 10.8 | |
| Ieri h: 14:30 | Poco Nuvoloso | 30 | 13 | 35 | 1015 | 10 | S/SO 10.8 | |
| Ieri h: 14:00 | Poco Nuvoloso | 29 | 13 | 37 | 1015 | 10 | N 7.2 | |
| Ieri h: 13:30 | Sereno | 28 | 15 | 45 | 1015 | 10 | N 7.2 | |
| Ieri h: 13:00 | Sereno | 28 | 13 | 39 | 1016 | 10 | N 3.6 | |
| Ieri h: 12:30 | Sereno | 27 | 14 | 44 | 1016 | 10 | N 3.6 | |
| Ieri h: 12:00 | Sereno | 26 | 14 | 47 | 1016 | 10 | N 3.6 | |
| Ieri h: 11:30 | Sereno | 25 | 13 | 47 | 1017 | 10 | N 3.6 | |
| Ieri h: 11:00 | Sereno | 24 | 13 | 50 | 1017 | 10 | N 7.2 | |
| Ieri h: 10:30 | Sereno | 23 | 13 | 53 | 1017 | 10 | N 7.2 | |
| Ieri h: 10:00 | Sereno | 23 | 12 | 49 | 1018 | 10 | N 3.6 | |
| Ieri h: 09:30 | Sereno | 21 | 12 | 56 | 1018 | 10 | N 3.6 | |
| Ieri h: 09:00 | Sereno | 20 | 12 | 59 | 1017 | 10 | N 3.6 | |
| Ieri h: 08:30 | Sereno | 20 | 12 | 59 | 1017 | 10 | N 3.6 | |
| Ieri h: 08:00 | Sereno | 19 | 12 | 63 | 1017 | 10 | N 3.6 | |



